KN4TIM Weather Reports


time (UTC)temp
C
wind
direction
speed
KPH
gust
KPH
rain 1hr
cm
rain 24hr
cm
rain mn
cm
humidity
%
barometer
mb
20260505125001 15 217 0.0 3.2 0.00 0.00 0.00 79 1018.1
20260505124500 15 115 0.0 4.8 0.00 0.00 0.00 80 1018.1
20260505124003 15 101 0.0 4.8 0.00 0.00 0.00 80 1018.0
20260505123501 15 98 0.0 3.2 0.00 0.00 0.00 82 1018.0
20260505123001 14 205 1.6 3.2 0.00 0.00 0.00 83 1018.0
20260505122500 14 189 0.0 1.6 0.00 0.00 0.00 84 1018.0
20260505122001 13 231 0.0 1.6 0.00 0.00 0.00 85 1018.1
20260505121501 13 231 0.0 1.6 0.00 0.00 0.00 85 1018.1
20260505121001 13 231 0.0 1.6 0.00 0.00 0.00 87 1018.0
20260505120504 12 242 0.0 1.6 0.00 0.00 0.00 87 1017.9
20260505120002 12 242 0.0 1.6 0.00 0.00 0.00 89 1017.9
20260505115502 12 242 0.0 1.6 0.00 0.00 0.00 90 1018.0
20260505115003 11 303 0.0 0.0 0.00 0.00 0.00 91 1017.9
20260505114502 11 303 0.0 0.0 0.00 0.00 0.00 92 1017.9
20260505114002 11 303 0.0 0.0 0.00 0.00 0.00 92 1017.9
20260505113500 10 303 0.0 0.0 0.00 0.00 0.00 91 1017.8
20260505113001 10 303 0.0 0.0 0.00 0.00 0.00 91 1017.8
20260505112501 10 303 0.0 0.0 0.00 0.00 0.00 90 1017.7
20260505112001 10 303 0.0 0.0 0.00 0.00 0.00 90 1017.7
20260505111002 10 303 0.0 0.0 0.00 0.00 0.00 90 1017.7
20260505110502 10 303 0.0 0.0 0.00 0.00 0.00 90 1017.7
20260505101003 10 303 0.0 0.0 0.00 0.00 0.00 87 1017.2
20260505100502 10 303 0.0 0.0 0.00 0.00 0.00 87 1017.1
20260505100002 10 303 0.0 0.0 0.00 0.00 0.00 87 1017.0
20260505095502 10 303 0.0 0.0 0.00 0.00 0.00 86 1017.1
20260505095001 10 303 0.0 0.0 0.00 0.00 0.00 86 1017.0
20260505094503 10 303 0.0 0.0 0.00 0.00 0.00 86 1017.0
20260505091003 11 303 0.0 0.0 0.00 0.00 0.00 82 1017.0
20260505090502 12 303 0.0 0.0 0.00 0.00 0.00 81 1017.0
20260505090004 12 303 0.0 0.0 0.00 0.00 0.00 80 1017.0
20260505085502 12 303 0.0 0.0 0.00 0.00 0.00 79 1016.9
20260505085002 13 303 0.0 0.0 0.00 0.00 0.00 79 1016.9
20260505084502 13 303 0.0 1.6 0.00 0.00 0.00 78 1016.9
20260505081003 13 314 0.0 4.8 0.00 0.00 0.00 76 1016.6
20260505080503 13 258 0.0 1.6 0.00 0.00 0.00 75 1016.5
20260505080003 14 259 0.0 1.6 0.00 0.00 0.00 75 1016.4
20260505075502 14 46 0.0 3.2 0.00 0.00 0.00 75 1016.4
20260505075002 14 207 0.0 3.2 0.00 0.00 0.00 75 1016.3
20260505074503 14 189 0.0 3.2 0.00 0.00 0.00 74 1016.3
20260505071502 14 135 0.0 3.2 0.00 0.00 0.00 73 1016.4
20260505071002 14 146 0.0 4.8 0.00 0.00 0.00 73 1016.3
20260505070502 14 220 0.0 4.8 0.00 0.00 0.00 72 1016.4
20260505070003 14 212 0.0 3.2 0.00 0.00 0.00 72 1016.3
20260505065502 14 219 0.0 4.8 0.00 0.00 0.00 72 1016.3
20260505065002 14 172 0.0 4.8 0.00 0.00 0.00 72 1016.3
20260505062002 15 289 1.6 6.4 0.00 0.00 0.00 70 1016.6
20260505061509 15 218 1.6 6.4 0.00 0.00 0.00 70 1016.6
20260505061003 15 226 1.6 4.8 0.00 0.00 0.00 70 1016.7
20260505060504 15 252 0.0 4.8 0.00 0.00 0.00 69 1016.7
20260505060003 15 210 0.0 4.8 0.00 0.00 0.00 69 1016.7
20260505053004 15 275 0.0 4.8 0.00 0.00 0.00 68 1016.8
20260505052502 15 205 1.6 6.4 0.00 0.00 0.00 68 1016.8
20260505052002 15 237 1.6 6.4 0.00 0.00 0.00 68 1017.0
20260505051504 15 217 0.0 4.8 0.00 0.00 0.00 68 1017.0
20260505051002 15 212 0.0 4.8 0.00 0.00 0.00 67 1016.9
20260505050506 15 218 0.0 4.8 0.00 0.00 0.00 67 1017.1
20260505041504 16 214 0.0 4.8 0.00 0.00 0.00 65 1017.2
20260505034006 16 173 0.0 4.8 0.00 0.00 0.00 62 1017.2
20260505033507 17 227 1.6 4.8 0.00 0.00 0.00 62 1017.2
20260505033004 17 205 0.0 4.8 0.00 0.00 0.00 61 1017.1
20260505032503 17 226 0.0 4.8 0.00 0.00 0.00 61 1017.1
20260505032002 17 212 0.0 3.2 0.00 0.00 0.00 61 1017.1
20260505031505 17 219 1.6 3.2 0.00 0.00 0.00 61 1017.2
20260505024003 18 197 0.0 3.2 0.00 0.00 0.00 58 1016.9
20260505023503 18 209 0.0 4.8 0.00 0.00 0.00 58 1016.9
20260505023004 18 226 1.6 4.8 0.00 0.00 0.00 58 1016.8
20260505022504 18 116 1.6 6.4 0.00 0.00 0.00 57 1016.8
20260505022003 18 134 1.6 6.4 0.00 0.00 0.00 57 1016.8
20260505021507 18 186 0.0 3.2 0.00 0.00 0.00 57 1016.8
20260505014003 18 264 1.6 4.8 0.00 0.00 0.00 53 1016.5
20260505013502 19 159 1.6 4.8 0.00 0.00 0.00 52 1016.4
20260505013005 19 122 0.0 4.8 0.00 0.00 0.00 51 1016.4
20260505012507 19 245 0.0 6.4 0.00 0.00 0.00 50 1016.3
20260505012004 19 248 1.6 6.4 0.00 0.00 0.00 47 1016.2
20260505011503 19 134 1.6 4.8 0.00 0.00 0.00 46 1016.1
20260505005002 20 238 0.0 1.6 0.00 0.00 0.00 44 1015.8
20260505004503 20 238 0.0 1.6 0.00 0.00 0.00 43 1015.7
20260505004003 20 220 0.0 1.6 0.00 0.00 0.00 43 1015.7
20260505003502 20 220 0.0 3.2 0.00 0.00 0.00 42 1015.6
20260505003007 21 220 0.0 3.2 0.00 0.00 0.00 43 1015.6
20260505002505 21 215 0.0 1.6 0.00 0.00 0.00 41 1015.5
20260505000008 22 242 0.0 1.6 0.00 0.00 0.00 38 1015.2
20260504235502 22 191 0.0 4.8 0.00 0.00 0.00 38 1015.2
20260504235001 22 191 0.0 6.4 0.00 0.00 0.00 37 1015.2
20260504234508 22 165 0.0 6.4 0.00 0.00 0.00 37 1015.1
20260504234003 23 223 1.6 4.8 0.00 0.00 0.00 36 1015.1
20260504233505 23 198 0.0 4.8 0.00 0.00 0.00 35 1015.1
20260504233010 23 192 1.6 4.8 0.00 0.00 0.00 35 1015.0
20260504232507 23 185 0.0 4.8 0.00 0.00 0.00 34 1015.0
20260504232002 23 199 0.0 8.0 0.00 0.00 0.00 34 1015.1
20260504231503 24 232 0.0 8.0 0.00 0.00 0.00 33 1015.1
20260504231002 24 214 1.6 6.4 0.00 0.00 0.00 32 1015.0
20260504230504 24 283 3.2 6.4 0.00 0.00 0.00 32 1015.1
20260504230012 25 172 1.6 4.8 0.00 0.00 0.00 31 1015.1
20260504225505 25 286 1.6 4.8 0.00 0.00 0.00 32 1015.1
20260504225004 25 157 1.6 4.8 0.00 0.00 0.00 31 1015.1
20260504224505 26 231 0.0 6.4 0.00 0.00 0.00 31 1015.1
20260504224004 26 114 1.6 6.4 0.00 0.00 0.00 30 1015.1
20260504223503 25 162 1.6 8.0 0.00 0.00 0.00 30 1015.1
20260504223006 26 127 3.2 11.3 0.00 0.00 0.00 29 1015.1
20260504222511 26 264 3.2 11.3 0.00 0.00 0.00 29 1015.1
20260504222007 26 162 1.6 9.7 0.00 0.00 0.00 29 1015.1
20260504221505 26 224 1.6 9.7 0.00 0.00 0.00 29 1015.0
20260504221003 27 77 4.8 9.7 0.00 0.00 0.00 28 1015.0
20260504220507 27 299 1.6 11.3 0.00 0.00 0.00 29 1014.9
20260504220007 27 186 3.2 11.3 0.00 0.00 0.00 28 1014.9
20260504215504 27 133 3.2 9.7 0.00 0.00 0.00 28 1014.9
20260504215009 27 285 3.2 9.7 0.00 0.00 0.00 27 1014.8
20260504214504 27 243 1.6 6.4 0.00 0.00 0.00 28 1014.7
20260504214002 27 116 1.6 6.4 0.00 0.00 0.00 28 1014.9
20260504213503 27 184 1.6 6.4 0.00 0.00 0.00 27 1014.9
20260504213031 27 117 1.6 11.3 0.00 0.00 0.00 27 1014.9
20260504212504 27 231 3.2 11.3 0.00 0.00 0.00 27 1014.9
20260504212004 27 108 3.2 11.3 0.00 0.00 0.00 26 1014.9
20260504211515 27 86 1.6 11.3 0.00 0.00 0.00 26 1014.9
20260504211004 27 119 1.6 6.4 0.00 0.00 0.00 26 1014.9
20260504210503 28 212 1.6 6.4 0.00 0.00 0.00 25 1014.9
20260504210011 28 84 3.2 8.0 0.00 0.00 0.00 25 1014.8
20260504205504 28 302 1.6 8.0 0.00 0.00 0.00 27 1015.0
20260504205003 28 228 1.6 8.0 0.00 0.00 0.00 25 1014.9
20260504204508 28 235 3.2 8.0 0.00 0.00 0.00 26 1015.0
20260504204004 28 124 1.6 6.4 0.00 0.00 0.00 27 1015.0
20260504203511 28 119 1.6 8.0 0.00 0.00 0.00 27 1015.0
20260504203010 28 122 1.6 8.0 0.00 0.00 0.00 26 1015.1
20260504202504 28 134 1.6 8.0 0.00 0.00 0.00 25 1015.2
20260504202003 28 186 1.6 8.0 0.00 0.00 0.00 26 1015.3
20260504201517 28 325 3.2 8.0 0.00 0.00 0.00 24 1015.4
20260504201002 28 302 1.6 8.0 0.00 0.00 0.00 24 1015.4
20260504200502 28 196 1.6 8.0 0.00 0.00 0.00 25 1015.4
20260504200004 27 65 3.2 9.7 0.00 0.00 0.00 28 1015.5
20260504195502 27 120 3.2 9.7 0.00 0.00 0.00 27 1015.5
20260504195003 27 127 1.6 9.7 0.00 0.00 0.00 26 1015.5
20260504194504 28 89 3.2 9.7 0.00 0.00 0.00 26 1015.5
20260504194003 28 112 1.6 9.7 0.00 0.00 0.00 27 1015.5
20260504193503 28 77 3.2 6.4 0.00 0.00 0.00 27 1015.6
20260504193003 28 278 1.6 6.4 0.00 0.00 0.00 27 1015.6
20260504192503 28 126 3.2 6.4 0.00 0.00 0.00 27 1015.7
20260504192003 27 126 3.2 8.0 0.00 0.00 0.00 26 1015.7
20260504191508 27 264 4.8 11.3 0.00 0.00 0.00 26 1015.8
20260504191008 27 70 1.6 11.3 0.00 0.00 0.00 26 1015.9
20260504190504 27 304 1.6 8.0 0.00 0.00 0.00 26 1015.9
20260504190013 27 193 3.2 8.0 0.00 0.00 0.00 24 1016.0
20260504185506 27 54 3.2 8.0 0.00 0.00 0.00 26 1016.2
20260504184511 27 103 3.2 8.0 0.00 0.00 0.00 27 1016.5
20260504184003 27 216 1.6 8.0 0.00 0.00 0.00 25 1016.6
20260504183505 27 129 1.6 11.3 0.00 0.00 0.00 27 1016.6
20260504183006 27 302 3.2 11.3 0.00 0.00 0.00 26 1016.7
20260504182506 27 121 3.2 4.8 0.00 0.00 0.00 25 1016.8
20260504182004 27 13 3.2 8.0 0.00 0.00 0.00 24 1016.9
20260504181504 27 131 3.2 8.0 0.00 0.00 0.00 24 1017.1
20260504181004 27 315 1.6 8.0 0.00 0.00 0.00 23 1017.0
20260504180504 27 11 1.6 8.0 0.00 0.00 0.00 24 1017.1
20260504180009 27 316 1.6 8.0 0.00 0.00 0.00 23 1017.0
20260504175505 27 274 3.2 8.0 0.00 0.00 0.00 24 1017.0
20260504175006 27 278 1.6 6.4 0.00 0.00 0.00 26 1017.1
20260504174514 26 68 1.6 6.4 0.00 0.00 0.00 27 1017.1
20260504174007 26 93 3.2 11.3 0.00 0.00 0.00 26 1017.1
20260504173506 26 266 1.6 11.3 0.00 0.00 0.00 27 1017.2
20260504173002 26 141 1.6 4.8 0.00 0.00 0.00 27 1017.4
20260504172502 26 91 3.2 8.0 0.00 0.00 0.00 27 1017.5
20260504172002 26 164 1.6 11.3 0.00 0.00 0.00 27 1017.5
20260504171503 26 319 3.2 11.3 0.00 0.00 0.00 28 1017.5
20260504171004 25 102 3.2 8.0 0.00 0.00 0.00 29 1017.6
20260504170504 25 251 3.2 8.0 0.00 0.00 0.00 28 1017.7
20260504151011 23 284 3.2 11.3 0.00 0.00 0.00 36 1018.4
20260504150507 23 334 3.2 9.7 0.00 0.00 0.00 38 1018.5
20260504141009 20 300 1.6 6.4 0.00 0.00 0.00 48 1018.6
20260504140507 19 261 1.6 4.8 0.00 0.00 0.00 50 1018.5